![]() |
EMODnet Physics ERDDAP
Easier access to scientific data |
log in|
Brought to you by EMODnet Physics |
| Dataset Title: | NDBC - Collection of dew point temperature (DEWT) TimeSeries - IN SITU MultiPointTimeSeriesObservation
|
| Institution: | NDBC (Dataset ID: TS_DEWT_NDBC) |
| Information: | Summary
| License
| FGDC
| ISO 19115
| Metadata
| Background
| Subset
| Data Access Form
| Make a graph
|
| Name | Last modified | Size | Description | |
|---|---|---|---|---|
| Parent Directory | - | - | ||
| 51204_TS_DEWT_012011.nc | 27-Oct-2024 03:59 | 993357 | ||
| 51204_TS_DEWT_012012.nc | 27-Oct-2024 04:00 | 1266122 | ||
| 51204_TS_DEWT_012013.nc | 27-Oct-2024 04:00 | 444376 | ||
| 51204_TS_DEWT_012014.nc | 27-Oct-2024 04:00 | 429271 | ||
| 51204_TS_DEWT_012015.nc | 27-Oct-2024 04:00 | 429273 | ||
| 51204_TS_DEWT_012016.nc | 27-Oct-2024 04:00 | 429270 | ||
| 51204_TS_DEWT_012017.nc | 16-Sep-2024 16:51 | 429274 | ||
| 51204_TS_DEWT_022011.nc | 27-Oct-2024 04:00 | 429278 | ||
| 51204_TS_DEWT_022012.nc | 27-Oct-2024 04:00 | 429290 | ||
| 51204_TS_DEWT_022013.nc | 27-Oct-2024 04:00 | 429277 | ||
| 51204_TS_DEWT_022015.nc | 27-Oct-2024 04:00 | 429265 | ||
| 51204_TS_DEWT_022016.nc | 27-Oct-2024 04:00 | 429273 | ||
| 51204_TS_DEWT_022017.nc | 16-Sep-2024 16:51 | 429294 | ||
| 51204_TS_DEWT_032011.nc | 27-Oct-2024 04:00 | 429054 | ||
| 51204_TS_DEWT_032013.nc | 27-Oct-2024 04:00 | 429289 | ||
| 51204_TS_DEWT_032014.nc | 27-Oct-2024 04:00 | 429298 | ||
| 51204_TS_DEWT_032015.nc | 27-Oct-2024 04:00 | 429294 | ||
| 51204_TS_DEWT_032016.nc | 27-Oct-2024 04:00 | 429293 | ||
| 51204_TS_DEWT_042011.nc | 27-Oct-2024 04:00 | 429300 | ||
| 51204_TS_DEWT_042013.nc | 27-Oct-2024 04:01 | 429295 | ||
| 51204_TS_DEWT_042014.nc | 27-Oct-2024 04:01 | 428275 | ||
| 51204_TS_DEWT_042015.nc | 27-Oct-2024 04:01 | 427343 | ||
| 51204_TS_DEWT_042016.nc | 27-Oct-2024 04:01 | 429296 | ||
| 51204_TS_DEWT_052011.nc | 27-Oct-2024 04:01 | 428575 | ||
| 51204_TS_DEWT_052012.nc | 27-Oct-2024 04:01 | 429291 | ||
| 51204_TS_DEWT_052013.nc | 27-Oct-2024 04:01 | 449302 | ||
| 51204_TS_DEWT_052014.nc | 27-Oct-2024 04:01 | 448360 | ||
| 51204_TS_DEWT_052015.nc | 27-Oct-2024 04:01 | 436755 | ||
| 51204_TS_DEWT_052016.nc | 27-Oct-2024 04:01 | 450023 | ||
| 51204_TS_DEWT_062011.nc | 27-Oct-2024 04:01 | 449586 | ||
| 51204_TS_DEWT_062012.nc | 27-Oct-2024 04:01 | 450579 | ||
| 51204_TS_DEWT_062013.nc | 27-Oct-2024 04:01 | 448578 | ||
| 51204_TS_DEWT_062014.nc | 27-Oct-2024 04:01 | 448866 | ||
| 51204_TS_DEWT_062015.nc | 27-Oct-2024 04:01 | 448569 | ||
| 51204_TS_DEWT_062016.nc | 27-Oct-2024 04:01 | 448242 | ||
| 51204_TS_DEWT_072011.nc | 27-Oct-2024 04:02 | 448666 | ||
| 51204_TS_DEWT_072012.nc | 27-Oct-2024 04:02 | 441476 | ||
| 51204_TS_DEWT_072013.nc | 27-Oct-2024 04:02 | 450328 | ||
| 51204_TS_DEWT_072014.nc | 27-Oct-2024 04:02 | 449318 | ||
| 51204_TS_DEWT_072015.nc | 27-Oct-2024 04:02 | 449456 | ||
| 51204_TS_DEWT_082011.nc | 27-Oct-2024 04:02 | 1030656 | ||
| 51204_TS_DEWT_082012.nc | 27-Oct-2024 04:02 | 1111447 | ||
| 51204_TS_DEWT_082013.nc | 27-Oct-2024 04:02 | 1102302 | ||
| 51204_TS_DEWT_082014.nc | 27-Oct-2024 04:02 | 1111729 | ||
| 51204_TS_DEWT_082015.nc | 27-Oct-2024 04:02 | 1110042 | ||
| 51204_TS_DEWT_092011.nc | 27-Oct-2024 04:02 | 424438 | ||
| 51204_TS_DEWT_092012.nc | 27-Oct-2024 04:02 | 429610 | ||
| 51204_TS_DEWT_092013.nc | 27-Oct-2024 04:02 | 429603 | ||
| 51204_TS_DEWT_092014.nc | 27-Oct-2024 04:02 | 429605 | ||
| 51204_TS_DEWT_092015.nc | 27-Oct-2024 04:02 | 429608 | ||
| 51204_TS_DEWT_102010.nc | 27-Oct-2024 04:02 | 429602 | ||
| 51204_TS_DEWT_102011.nc | 27-Oct-2024 04:03 | 429614 | ||
| 51204_TS_DEWT_102012.nc | 27-Oct-2024 04:03 | 429620 | ||
| 51204_TS_DEWT_102013.nc | 27-Oct-2024 04:03 | 429604 | ||
| 51204_TS_DEWT_102014.nc | 27-Oct-2024 04:03 | 429595 | ||
| 51204_TS_DEWT_102015.nc | 27-Oct-2024 04:03 | 429616 | ||
| 51204_TS_DEWT_102016.nc | 16-Sep-2024 16:51 | 429623 | ||
| 51204_TS_DEWT_112010.nc | 27-Oct-2024 04:03 | 429614 | ||
| 51204_TS_DEWT_112011.nc | 27-Oct-2024 04:03 | 429597 | ||
| 51204_TS_DEWT_112012.nc | 27-Oct-2024 04:03 | 429623 | ||
| 51204_TS_DEWT_112013.nc | 27-Oct-2024 04:03 | 429616 | ||
| 51204_TS_DEWT_112014.nc | 27-Oct-2024 04:03 | 429615 | ||
| 51204_TS_DEWT_112015.nc | 27-Oct-2024 04:03 | 429626 | ||
| 51204_TS_DEWT_112016.nc | 16-Sep-2024 16:51 | 429627 | ||
| 51204_TS_DEWT_122010.nc | 27-Oct-2024 04:03 | 429616 | ||
| 51204_TS_DEWT_122011.nc | 27-Oct-2024 04:03 | 429621 | ||
| 51204_TS_DEWT_122012.nc | 27-Oct-2024 04:03 | 429627 | ||
| 51204_TS_DEWT_122013.nc | 27-Oct-2024 04:03 | 429614 | ||
| 51204_TS_DEWT_122014.nc | 27-Oct-2024 04:04 | 449498 | ||
| 51204_TS_DEWT_122015.nc | 27-Oct-2024 04:04 | 448253 | ||
| 51204_TS_DEWT_122016.nc | 16-Sep-2024 16:51 | 442283 | ||